DECAYED

NOAA 16 DEB, 42361 (Decayed)

Orbit data source: Space-Track

NOAA 16 DEB, 42361 was space debris in SSO originally from a launch on Thu, 21 Sep 2000 UTC launched from the Air Force Western Test Range (AFWTR). Debris objects in space refer to the collection of defunct objects orbiting the Earth. Examples of debris include non-operational satellites, rocket bodies, and fragments generated from explosions, collisions, or faulty payload assembly.

Not visible in the next 10 days
Identifier
42361, 2000-055RD
Orbit
Decayed
Country
Flag of USUS
Related business
Manufacturer
Unknown
Mission
Decayed spacecraft
Bus & Motor
Unknown
Mass
Unknown
Launch date (UTC)
2000-09-21 (26 years ago)
Launch vehicle
Unknown
Launch site
Air Force Western Test Range (AFWTR)
Object type
Payload
Rocket body
Debris
Shape & HBR
Unknown shape, 0.1 m
Radar Cross Section
Medium (>0.1 m² and <1 m²)

Expand to show TLE details & history
Last TLE update: 2 months ago

TLE from 2 months ago
0 NOAA 16 DEB
1 42361U 00055RD  26097.87289606  .01780316  00000-0  22842-1 0  9991
2 42361  98.8876 244.8667 0031284 304.7816  55.0490 15.55556457528217
Epoch: 2026-04-07T20:56Z
TLE epoch observation values (Epoch: 2026-04-07T20:56:58.219Z)
Latitude
-0.00004°
Longitude
94.48075°
Altitude
391.52 km
Speed
7.682 km/s
True Right ascension
16h 19m 28s
True Declination
0° 00' 00"
Sunlit
Object was in full shadow at epoch
Visualization orbit readout
Latitude
Unknown
Longitude
Unknown
Altitude
Unknown
Speed
Unknown
Apparent Right ascension
Unknown
Apparent Declination
Unknown
Sunlit
N/A
Visualization observer readout
Local Sidereal Time
21:43:04
Azimuth
Unknown
Elevation
Unknown
Doppler factor
Unknown
Orbital elements
Apogee altitude
418.722 km
Perigee altitude
376.328 km
Semi-major axis
6,775.662 km
Eccentricity
0.00313
Inclination
98.8876°
RAAN
244.8667°
Arg. of periapsis
304.7816°
True anomaly
55.34349°
Mean anomaly
55.049°
Eccentric anomaly
55.19618°
Mean motion
3.89149 °/min
Orbital period
92.51 mins
BSTAR
0.022842
Loading maneuver chart data...
Computing Atmospheric mass density...
Loading historical data...
Loading historical data...
Loading historical data...
Loading historical data...
Loading historical data...
Loading historical data...
Loading historical data...

Documentation

Showing up to 5 results
|